星链-34932 (STARLINK-34932)

导读

STARLINK-34932是美国于2025年8月14日发射的星链系列卫星,星链是SpaceX打造的低轨卫星互联网星座项目,旨在为全球提供高速低延迟的宽带互联网服务。该卫星属于星链组网扩容的新增卫星,加入低轨卫星星座后,进一步完善全球覆盖能力,提升星链系统服务容量与稳定性。

Basic Information
目录编号:
65179
目录名称:
STARLINK-34932
国际标识:
2025-175F
轨道中心:
EARTH
卫星名称:
星链-34932
卫星全名:
星链-34932 (STARLINK-34932)
卫星状态:
在轨 (已飞行386 天)
发射日期:
2025-08-14 UTC
国别 :
美国 (US)
星等 :
--
Orbit Information
数据来源 国际轨道数据
星历时间: 2026-09-02T12:11:33+0800
1天前
查看轨道信息
半长轴: 6843.656km
偏心率: 0.0001551
轨道倾角: 97.284°
近地点辐角 92.154°
升交点赤经 114.402°
平近点角 267.988°
近地点: 464.457km
远地点: 466.581km
周期: 93.906分钟
每日圈数: 15.334533
Detailed Information
固有亮度:
5
最大亮度:
2.5
卫星平台:
Starlink V1.0
覆盖范围:
全球
运营商:
太空探索技术公司
运营商所在国:
美国
制造商(研发单位):
太空探索技术公司
制造商所在国:
美国
使用方式:
暂无
Satellite Introduction
Starlink 计划是 SpaceX 推出的全球卫星互联网项目,通过发射低轨道卫星,为全球尤其是偏远地区提供高速、低延迟的互联网服务。自 2019 年起,Starlink 已部署数千颗卫星,旨在缩小全球数字鸿沟,推动互联网普及。该项目还为军事、航空等行业提供通信支持,带来广泛经济效益。
2D Orbit Map
3D Orbit Map
Orbit Altitude Analysis Chart
Orbit Inclination Analysis Chart
Orbit Comprehensive Analysis Chart
View Comprehensive Chart
Conjunction Data List
Event ID Objects TCA Miss Dist (km) Collision Risk Probability Collision Risk Index (CRI) Action
CDM_260830-085406-508806-517921
2026-08-30T
08:54:19+0000
2.470 km
极远距离
1.79005E-6 低风险 0.4
CDM_260827-182605-210206-517921
2026-08-27T
18:26:04+0000
2.401 km
极远距离
1.593153E-6 低风险 0.39
CDM_260827-191305-210206-517921
2026-08-27T
19:13:00+0000
2.439 km
极远距离
1.546305E-6 低风险 0.39
CDM_260831-010006-056206-517921
2026-08-31T
01:00:34+0000
2.735 km
极远距离
1.503688E-6 低风险 0.39